Location: ????????
(55.1333°N, 39.0667°E)
Time: 06:35:33
(UTC+00:00)

Daily predictions for brighter satellites

Satellite Brightness Start Highest point End
(mag) Time Altitude Azimuth Time Altitude Azimuth Time Altitude Azimuth
NOSS 3-3 (A) 4.1 14:01:19 10° WSW 14:06:51 74° NW 14:13:39 10° NE
Cosmos 1459 Rocket 4.1 14:01:19 10° S 14:07:35 73° E 14:13:57 10° NNE
Cosmos 2297 Rocket 4.0 14:03:43 10° WNW 14:07:40 19° NNW 14:11:36 10° NNE
Cosmos 1025 Rocket 3.2 14:04:19 10° NNW 14:08:41 81° WSW 14:12:58 10° S
Cosmos 2100 Rocket 4.0 14:02:42 10° S 14:08:53 79° E 14:15:03 10° NNE
Thor Agena Rocket 3.6 14:04:25 10° SSE 14:09:42 80° ENE 14:15:00 10° NNW
SWARM C 4.5 14:09:00 10° N 14:12:19 65° E 14:15:37 10° SSE
SWARM A 4.3 14:09:08 10° N 14:12:25 56° E 14:15:42 10° SSE
DNEPR-1 R/B 4.3 14:08:08 10° NW 14:12:26 61° SW 14:17:17 10° SSE
CZ-2D R/B 3.3 14:10:22 10° SE 14:13:18 36° ENE 14:16:15 10° N
Geosat FO 4.4 14:11:07 10° ESE 14:13:52 43° NE 14:16:39 10° NNW
Cosmos 1674 Rocket 4.4 14:10:37 10° NNW 14:14:54 54° W 14:19:07 10° S
RESURS DK-1 2.7 14:14:12 10° NNW 14:18:01 40° NE 14:21:48 10° ESE
SAR-Lupe-1 4.2 14:15:36 10° SE 14:19:03 49° ENE 14:22:32 10° N
Meteor 1-28 Rocket 2.9 14:16:27 10° NNE 14:19:49 60° ESE 14:23:09 10° S
IGS 5A 3.4 14:16:15 10° SSE 14:20:14 88° WSW 14:24:18 10° NNW
Cosmos 1606 2.0 14:17:35 10° SSW 14:20:15 69° WNW 14:22:55 10° N
Cosmos 1864 Rocket 4.5 14:15:40 10° S 14:21:45 70° E 14:27:58 10° NNE
IRS-P3 4.3 14:18:15 10° SE 14:23:24 52° ENE 14:28:33 10° N
ATLAS 2AS CENTAUR R/B 3.3 14:17:49 10° WNW 14:24:19 42° N 14:30:12 12° ENE
Cosmos 2221 Rocket 4.2 14:22:45 10° NNW 14:27:13 62° W 14:31:37 10° S
Cosmos 2061 Rocket 4.2 14:23:45 10° SSE 14:29:46 49° E 14:35:44 10° NNE
SAR-Lupe-4 3.5 14:27:59 10° SSE 14:31:33 76° ENE 14:35:09 10° NNW
YAOGAN 1 3.5 14:30:15 10° ESE 14:33:47 26° ENE 14:37:21 10° N
NOSS 3-3 (C) 4.2 14:28:14 10° WSW 14:33:48 65° NNW 14:40:16 12° NE
PSLV R/B 4.4 14:32:34 10° ESE 14:35:54 25° ENE 14:39:15 10° N
Cosmos 1725 Rocket 4.0 14:29:57 10° S 14:36:13 79° E 14:42:33 10° NNE
Cosmos 2344 3.9 14:30:18 10° WNW 14:37:30 55° NNE 14:46:00 11° E
Cosmos 2233 Rocket 4.1 14:31:47 10° S 14:37:57 60° E 14:44:11 10° NNE
SJ-12 3.6 14:35:39 10° SSE 14:39:25 73° ENE 14:43:14 10° NNW
ARIANE 5 R/B 2.4 14:34:50 10° SSE 14:39:50 85° ENE 14:44:52 10° NNW
Resurs 1-3 4.4 14:36:41 10° ESE 14:40:20 28° ENE 14:44:01 10° N
ARIANE 6 FM1 Upper Stage 3.1 14:39:13 10° WSW 14:43:07 52° NNW 14:46:07 16° NE
CZ-2D R/B 3.9 14:39:23 10° SE 14:43:13 38° ENE 14:47:08 10° N
Cosmos 1340 Rocket 3.8 14:40:12 10° SW 14:43:55 45° WNW 14:47:38 10° N
Cosmos 468 Rocket 4.3 14:39:07 10° NNW 14:44:08 44° NE 14:49:04 10° SE
Aureole 3 Rocket 4.2 14:42:53 10° SE 14:43:37 13° ESE 14:43:37 13° ESE
SL-19 R/B 4.5 14:41:01 10° SE 14:45:49 40° ENE 14:50:42 10° N
Cosmos 2173 Rocket 4.4 14:40:44 10° SSW 14:46:53 64° WNW 14:52:59 10° N
Cosmos 2058 3.5 14:43:52 10° N 14:47:25 30° ENE 14:50:58 10° SE
Cosmos 1536 Rocket 4.5 14:44:05 10° N 14:47:55 27° ENE 14:51:42 10° SE
IRAS Rocket 4.4 14:43:03 10° SE 14:48:21 48° ENE 14:53:39 10° NNW
SAR-Lupe-3 4.4 14:47:57 23° NE 14:49:06 35° E 14:51:35 10° S
Resurs 01 Rocket 3.0 14:49:03 18° ENE 14:49:46 19° NE 14:52:54 10° N
SMAP 3.5 14:47:46 10° S 14:52:24 67° WSW 14:57:05 10° NNW
Cosmos 2227 Rocket 4.1 14:52:02 10° WNW 14:55:54 18° NNW 14:59:46 10° NNE
Cosmos 2082 Rocket 2.3 14:51:12 10° NNW 14:56:45 56° NE 15:02:16 10° SE
SL-08 R/B 4.4 14:51:10 10° S 14:57:16 88° ESE 15:03:24 10° NNE
Cosmos 1802 Rocket 4.4 14:52:13 10° SSW 14:58:38 72° WNW 15:05:05 10° N
SPOT 1/Viking Rocket 3.5 14:59:20 10° SSE 15:04:25 63° ENE 15:09:35 10° N
Cosmos 2278 Rocket 3.0 15:00:01 10° SSE 15:04:52 30° ESE 15:07:18 22° ENE
Timation 1 Rocket 4.3 14:59:21 10° NW 15:05:22 89° ENE 15:11:21 10° SE
Landsat 7 4.1 15:00:52 10° S 15:05:30 70° WSW 15:10:11 10° NNW
Cosmos 1943 Rocket 2.9 15:01:14 10° SSE 15:06:08 32° ESE 15:08:37 22° ENE
AQUARIUS 4.2 15:02:04 10° SSE 15:06:29 79° WSW 15:10:56 10° NNW
Cosmos 407 Rocket 3.9 15:03:55 10° S 15:08:42 39° ESE 15:11:36 21° NE
Cosmos 1782 Rocket 3.6 15:05:02 10° SSW 15:09:28 84° W 15:13:56 10° N
Cosmos 1869 3.2 15:06:06 10° SSE 15:09:28 44° E 15:11:07 25° NE
Cosmos 1812 4.4 15:07:04 10° SSE 15:07:20 12° SSE 15:07:20 12° SSE
Cosmos 2084 Rocket 3.4 15:08:51 10° SW 15:12:59 63° SE 15:14:52 31° ENE
CARTOSAT-1 4.2 15:14:03 30° E 15:14:41 31° ENE 15:18:26 10° N
ATLAS 5 CENTAUR R/B 3.4 15:11:14 10° WNW 15:15:04 33° SW 15:19:42 10° S
SJ-7 4.2 15:11:34 10° SSE 15:15:10 55° ENE 15:18:48 10° N
SL-16 R/B 3.3 15:11:02 10° NNE 15:17:08 54° WNW 15:23:10 10° SW
Cosmos 1300 Rocket 3.9 15:12:54 10° SSW 15:17:16 66° WNW 15:21:39 10° N
COSMOS 2406 3.4 15:17:42 10° NNW 15:23:17 52° NE 15:26:28 25° ESE
Cosmos 1975 Rocket 3.9 15:19:58 10° NNW 15:24:11 52° W 15:28:24 10° S
Spot 4 Rocket 3.9 15:19:14 10° SSE 15:24:20 78° ENE 15:29:27 10° NNW
Cosmos 2026 Rocket 4.4 15:19:22 10° N 15:24:59 37° ENE 15:28:19 22° ESE
USA 281 3.5 15:22:21 21° ESE 15:26:32 48° NE 15:32:49 10° NNW
ATLAS CENTAUR R/B 2.0 15:24:31 10° WSW 15:27:48 38° NNW 15:29:04 27° NNE
Cosmos 2263 Rocket 4.2 15:24:02 10° WNW 15:27:49 18° NNW 15:31:27 11° NNE
MOS 1 Rocket 3.4 15:24:14 10° S 15:28:32 69° WSW 15:33:03 10° NNW
Cosmos 2151 Rocket 4.1 15:24:36 10° SSE 15:28:25 36° E 15:28:25 36° E
UNK 4.5 15:25:52 10° N 15:30:22 53° WNW 15:34:51 10° SW
Cosmos 1844 Rocket 4.1 15:25:26 10° W 15:30:23 31° NW 15:35:09 11° NNE
SL-12 R/B(2) 4.5 15:24:56 10° SSW 15:32:47 55° ESE 15:39:22 21° NE
COSMO-SKYMED 1 2.7 15:34:15 43° ESE 15:34:15 43° ESE 15:38:03 10° S
SKYMED 2 3.5 15:31:12 19° NNE 15:34:10 60° ESE 15:38:28 10° S
Cosmos 921 Rocket 4.4 15:31:33 10° SW 15:35:38 37° NW 15:39:47 10° NNE
CZ-4C R/B 2.7 15:30:56 10° W 15:35:42 50° NNW 15:39:10 24° NE
Meteor 2-3 Rocket 4.0 15:30:24 10° N 15:35:55 45° ENE 15:38:23 29° ESE
Cosmos 1513 Rocket 4.5 15:30:06 10° S 15:36:24 69° E 15:42:48 10° NNE
Cosmos 1867 4.4 15:31:17 10° W 15:36:29 43° NNW 15:39:38 22° NE
Cosmos 1763 Rocket 4.2 15:31:28 10° NNW 15:36:35 55° WSW 15:41:37 10° S
Cosmos 540 Rocket 3.9 15:32:24 10° NNW 15:37:29 62° WSW 15:42:31 10° S
ISS -1.6 15:42:10 10° SSW 15:43:36 17° S 15:43:36 17° S
BREEZE-M DEB (TANK) 4.4 15:42:29 10° SSW 15:45:30 31° SE 15:46:03 30° SE
Nadezhda 4 Rocket 3.9 15:40:12 10° N 15:46:34 78° ENE 15:52:49 10° SSE
Cosmos 1140 Rocket 3.7 15:41:26 10° SW 15:46:36 70° WNW 15:50:28 18° NNE
Cosmos 1269 Rocket 4.4 15:41:26 10° SW 15:46:40 64° WNW 15:50:56 16° NNE
NOAA 6 3.9 15:44:55 10° SSE 15:50:04 83° ENE 15:55:14 10° NNW
Helios 1A Rocket 4.4 15:54:42 20° S 15:54:42 20° S 15:55:50 10° S
Cosmos 2297 Rocket 4.0 15:50:18 10° NNW 15:53:57 17° N 15:55:01 16° NNE
RESURS DK-1 3.9 15:51:44 10° NW 15:55:24 34° WSW 15:59:02 10° S
Cosmos 1602 4.1 15:54:50 10° NNW 15:57:48 46° W 15:58:11 43° WSW
Cosmos 2251 Rocket 3.5 15:53:57 10° S 15:59:06 55° ESE 15:59:28 54° E
Cosmos 2195 Rocket 4.4 15:54:03 10° N 16:00:22 70° ENE 16:06:41 10° SSE
BREEZE M DEB (TANK) 3.8 15:50:59 10° W 16:04:01 53° SSW 16:05:36 38° SE
Cosmos 1862 3.3 16:00:27 10° NNW 16:04:03 65° W 16:04:12 65° WSW
Geosat 4.3 16:01:25 17° SSE 16:05:19 64° WSW 16:10:19 10° NW
SPOT 5 4.3 16:07:36 27° NNE 16:07:36 27° NNE 16:10:26 10° N
Timation 2 Rocket 4.1 15:59:46 10° SSW 16:06:39 79° ESE 16:10:11 31° NE
Cosmos 1428 Rocket 4.4 16:01:50 10° NNW 16:08:08 90° SSE 16:14:26 10° S
YAOGAN 1 3.3 16:05:17 10° S 16:09:25 50° W 16:13:36 10° NNW
PSLV R/B 4.3 16:07:00 10° S 16:10:55 47° W 16:14:51 10° NNW
Cosmos 841 Rocket 3.4 16:08:51 10° NNW 16:14:09 86° WSW 16:15:36 49° SSE
Resurs 1-3 4.5 16:12:03 10° S 16:16:12 47° W 16:20:23 10° NNW
ATLAS 2AS CENTAUR R/B 2.6 16:09:26 10° NW 16:16:15 66° NNE 16:17:37 54° E
Terra 4.3 16:23:06 10° N 16:23:06 10° N 16:23:09 10° N
ARIANE 6 FM1 Upper Stage 4.1 16:19:17 10° WNW 16:22:10 28° NNW 16:22:10 28° NNW
Cosmos 2058 4.5 16:19:59 10° NNW 16:23:35 33° W 16:27:11 10° SSW
SJ 16-02 3.6 16:20:27 10° S 16:21:10 15° S 16:21:10 15° S
Resurs 01 Rocket 2.0 16:26:28 59° NNW 16:26:28 59° NNW 16:30:06 10° NNW
Cosmos 44 Rocket 4.0 16:25:12 10° SSW 16:28:34 45° SSW 16:28:34 45° SSW
Cosmos 1464 Rocket 4.2 16:29:43 10° SSW 16:36:00 71° WNW 16:42:15 10° N
Cosmos 1190 Rocket 4.2 16:31:16 10° SSW 16:35:36 60° SSW 16:35:36 60° SSW
Cosmos 2082 Rocket 3.5 16:35:34 10° NW 16:40:39 36° WSW 16:45:21 12° S
Cosmos 2227 Rocket 4.1 16:38:32 10° NNW 16:42:04 17° N 16:42:04 17° N
Cosmos 2034 Rocket 3.9 16:41:28 10° SSW 16:47:40 82° W 16:54:00 10° N
Cosmos 2278 Rocket 2.4 16:42:57 10° SW 16:48:35 66° NW 16:49:10 62° NNW
Cosmos 1943 Rocket 2.5 16:44:00 10° SW 16:49:34 63° NW 16:50:09 59° NNW
Cosmos 407 Rocket 4.4 16:45:37 10° SW 16:50:34 45° NW 16:51:44 38° NNW
Cosmos 2344 3.9 16:44:41 10° NW 16:52:22 72° SW 16:56:03 41° SSE
Cosmos 1092 Rocket 4.2 16:54:46 10° NNW 17:01:00 66° W 17:02:33 50° SSW
ATLAS CENTAUR R/B 4.1 17:01:10 10° NW 17:01:34 12° NW 17:01:34 12° NW
COSMOS 2406 4.3 17:02:12 10° NW 17:07:29 40° WSW 17:08:32 37° SW
USA 281 3.7 17:09:14 43° SSW 17:11:00 55° WSW 17:17:30 10° NW
Cosmos 2263 Rocket 4.3 17:10:22 10° NNW 17:13:06 16° N 17:13:06 16° N
CZ-4C R/B 3.5 17:19:55 10° WNW 17:24:07 37° NNW 17:24:07 37° NNW
Cosmos 2297 Rocket 4.2 17:34:44 10° NNW 17:36:48 20° NNW 17:36:48 20° NNW
ATLAS 2AS CENTAUR R/B 3.8 18:00:35 10° NW 18:05:03 38° W 18:05:03 38° W
ACS3 Solar Sail 4.2 23:11:11 10° NE 23:13:18 16° ENE 23:13:18 16° ENE
CENTAUR R/B 4.3 23:18:14 34° NE 23:18:14 34° NE 23:23:34 10° E
